Location: Zlin
(49.2330°N, 17.6670°E)
Time: 02:01:18
(UTC+01:00)

ISS - Pass Details

Date: 02 October 2020
Orbit: 417 x 420 km, 51.6° (Epoch: 25 October)

Event Time Altitude Azimuth Distance (km) Brightness Sun altitude
Rises 20:19:20 0° 289° (WNW) 2,370 1.7 -19.3°
Reaches altitude 10° 20:21:31 10° 282° (WNW) 1,504 0.3 -19.6°
Maximum altitude 20:24:41 39° 211° (SSW) 640 -2.8 -20.1°
Enters shadow 20:24:57 39° 199° (SSW) 649 -2.9 -20.1°
